FW6368 Weather Reports


time (UTC)temp
F
wind
direction
speed
knots
gust
knots
rain 1hr
in
rain 24hr
in
rain mn
in
humidity
%
barometer
mb
20260504215050 83 69 0.0 2.6 0.00 0.00 0.00 50 1014.0
20260504214555 84 97 0.9 2.6 0.00 0.00 0.00 50 1014.0
20260504214052 82 0 0.0 3.5 0.00 0.00 0.00 51 1014.1
20260504213549 82 104 0.0 5.2 0.00 0.00 0.00 50 1013.9
20260504213056 82 80 0.0 5.2 0.00 0.00 0.00 50 1013.9
20260504212552 84 113 0.9 3.5 0.00 0.00 0.00 49 1014.0
20260504212051 84 0 0.0 3.5 0.00 0.00 0.00 49 1014.0
20260504211644 84 92 0.0 3.5 0.00 0.00 0.00 48 1014.0
20260504211050 85 134 0.9 5.2 0.00 0.00 0.00 49 1014.0
20260504210548 86 95 0.9 5.2 0.00 0.00 0.00 47 1014.0
20260504210055 85 60 0.9 5.2 0.00 0.00 0.00 48 1014.1
20260504205548 85 74 0.9 6.1 0.00 0.00 0.00 51 1014.2
20260504205049 84 97 0.9 6.1 0.00 0.00 0.00 51 1014.0
20260504204551 84 125 0.9 3.5 0.00 0.00 0.00 49 1014.2
20260504204048 86 92 0.9 5.2 0.00 0.00 0.00 50 1014.1
20260504203548 85 0 0.9 5.2 0.00 0.00 0.00 48 1014.1
20260504203053 85 36 0.9 5.2 0.00 0.00 0.00 48 1014.2
20260504202547 85 96 0.9 4.3 0.00 0.00 0.00 49 1014.2
20260504202051 85 99 1.7 4.3 0.00 0.00 0.00 49 1014.2
20260504201604 85 157 0.9 7.8 0.00 0.00 0.00 50 1014.3
20260504201050 85 82 1.7 7.8 0.00 0.00 0.00 48 1014.3
20260504200550 85 105 0.9 4.3 0.00 0.00 0.00 49 1014.6
20260504200055 86 161 0.9 4.3 0.00 0.00 0.00 47 1014.6
20260504195551 85 0 1.7 4.3 0.00 0.00 0.00 47 1014.6
20260504195050 85 0 1.7 3.5 0.00 0.00 0.00 50 1014.8
20260504194557 84 186 0.9 4.3 0.00 0.00 0.00 49 1014.9
20260504194051 84 89 0.9 4.3 0.00 0.00 0.00 52 1015.0
20260504193551 84 41 0.9 4.3 0.00 0.00 0.00 53 1015.0
20260504193105 84 113 0.0 3.5 0.00 0.00 0.00 53 1015.1
20260504192551 84 44 0.0 3.5 0.00 0.00 0.00 49 1015.2
20260504192048 85 101 0.0 7.8 0.00 0.00 0.00 49 1015.2
20260504191609 84 90 0.9 8.7 0.00 0.00 0.00 55 1015.3
20260504191048 84 0 1.7 8.7 0.00 0.00 0.00 50 1015.3
20260504190548 84 89 0.0 3.5 0.00 0.00 0.00 53 1015.4
20260504190108 85 92 0.9 3.5 0.00 0.00 0.00 49 1015.4
20260504185547 85 148 0.9 3.5 0.00 0.00 0.00 49 1015.5
20260504185047 84 94 0.9 3.5 0.00 0.00 0.00 53 1015.5
20260504184556 83 92 0.9 3.5 0.00 0.00 0.00 56 1015.7
20260504184052 82 84 0.9 5.2 0.00 0.00 0.00 56 1015.9
20260504183553 82 0 0.9 5.2 0.00 0.00 0.00 56 1016.0
20260504183052 82 78 0.9 4.3 0.00 0.00 0.00 54 1016.1
20260504182551 82 55 0.9 4.3 0.00 0.00 0.00 56 1016.1
20260504182050 82 158 0.9 3.5 0.00 0.00 0.00 54 1016.2
20260504181600 84 103 0.0 3.5 0.00 0.00 0.00 53 1016.3
20260504181050 82 22 0.9 3.5 0.00 0.00 0.00 51 1016.4
20260504180552 83 71 0.9 4.3 0.00 0.00 0.00 54 1016.6
20260504180055 83 90 0.9 4.3 0.00 0.00 0.00 55 1016.7
20260504175551 83 19 1.7 4.3 0.00 0.00 0.00 55 1016.8
20260504175050 82 336 0.9 4.3 0.00 0.00 0.00 53 1016.6
20260504174552 82 55 0.9 5.2 0.00 0.00 0.00 52 1016.6
20260504174050 82 0 1.7 5.2 0.00 0.00 0.00 52 1016.8
20260504173548 83 348 0.9 5.2 0.00 0.00 0.00 52 1016.7
20260504173057 82 67 1.7 4.3 0.00 0.00 0.00 54 1016.6
20260504172547 83 72 0.9 4.3 0.00 0.00 0.00 54 1016.8
20260504172048 83 85 0.9 5.2 0.00 0.00 0.00 61 1016.7
20260504171551 82 117 0.9 5.2 0.00 0.00 0.00 55 1016.7
20260504171051 82 107 1.7 6.1 0.00 0.00 0.00 53 1016.8
20260504170547 82 65 1.7 6.1 0.00 0.00 0.00 54 1016.9
20260504151054 78 82 0.0 6.1 0.00 0.00 0.00 62 1017.9
20260504150550 78 0 0.9 6.1 0.00 0.00 0.00 60 1017.9
20260504141052 75 194 0.9 6.1 0.00 0.00 0.00 69 1017.7
20260504140553 75 123 0.9 6.1 0.00 0.00 0.00 70 1017.6
20260504130550 70 29 0.0 4.3 0.00 0.00 0.00 79 1017.3
20260504120104 65 88 0.0 2.6 0.00 0.00 0.00 84 1017.0
20260504110551 62 69 0.0 1.7 0.00 0.00 0.00 87 1016.6
20260504100551 63 69 0.0 2.6 0.00 0.61 0.00 85 1016.4
20260504081554 66 0 0.0 1.7 0.00 0.61 0.00 82 1016.3
20260504081049 66 76 0.0 1.7 0.00 0.61 0.00 82 1016.4
20260504080551 66 0 0.0 2.6 0.00 0.61 0.00 82 1016.5
20260504050551 68 0 0.0 1.7 0.00 0.61 0.00 80 1017.3
20260504045550 68 0 0.0 0.9 0.00 0.61 0.00 80 1017.2
20260504045051 68 0 0.0 1.7 0.00 0.61 0.00 80 1017.1
20260504044555 68 0 0.0 1.7 0.00 0.61 0.00 80 1017.2
20260504044050 69 90 0.0 1.7 0.00 0.61 0.00 80 1017.5
20260504043551 69 0 0.0 1.7 0.00 0.61 0.00 80 1017.6
20260504043059 69 101 0.0 1.7 0.00 0.61 0.00 80 1017.6
20260504042551 69 0 0.0 1.7 0.00 0.61 0.00 80 1017.8
20260504042049 69 0 0.0 0.9 0.00 0.61 0.00 80 1017.8
20260504041557 69 0 0.0 0.9 0.00 0.61 0.00 80 1017.9
20260504041049 69 0 0.0 0.9 0.00 0.61 0.00 80 1017.9
20260504040550 69 0 0.0 0.9 0.00 0.61 0.00 80 1018.0
20260504040131 69 0 0.0 0.9 0.00 0.61 0.00 79 1018.1
20260504035551 69 0 0.0 0.9 0.00 0.61 0.61 79 1018.0
20260504035053 69 0 0.0 0.9 0.00 0.61 0.61 79 1018.0
20260504034601 69 0 0.0 0.9 0.00 0.61 0.61 79 1018.1
20260504034050 69 0 0.0 2.6 0.00 0.61 0.61 78 1018.0
20260504033550 70 0 0.0 2.6 0.00 0.61 0.61 78 1017.9
20260504033051 70 103 0.0 2.6 0.00 0.61 0.61 77 1018.1
20260504032550 70 0 0.0 2.6 0.00 0.61 0.61 77 1017.9
20260504032050 70 90 0.0 2.6 0.00 0.61 0.61 77 1017.8
20260504031600 70 150 0.9 2.6 0.00 0.61 0.61 77 1017.9
20260504031051 70 0 0.0 2.6 0.00 0.61 0.61 77 1017.9
20260504030550 70 0 0.9 2.6 0.00 0.61 0.61 77 1017.8
20260504030054 70 0 0.0 2.6 0.00 0.61 0.61 76 1017.7
20260504025554 71 96 0.0 3.5 0.00 0.61 0.61 76 1017.7
20260504025052 71 98 0.9 3.5 0.00 0.61 0.61 76 1017.7
20260504024604 71 121 0.0 2.6 0.00 0.61 0.61 76 1017.7
20260504024050 71 0 0.0 2.6 0.00 0.61 0.61 75 1017.5
20260504023550 71 341 0.0 2.6 0.00 0.61 0.61 75 1017.4
20260504023057 71 107 0.0 1.7 0.00 0.61 0.61 75 1017.3
20260504022550 72 0 0.0 7.8 0.00 0.61 0.61 74 1017.5
20260504022050 72 0 0.0 7.8 0.00 0.61 0.61 74 1017.4
20260504021553 72 94 0.0 2.6 0.00 0.61 0.61 74 1017.4
20260504021050 72 88 0.0 5.2 0.00 0.61 0.61 74 1017.4
20260504020550 72 0 0.9 5.2 0.00 0.61 0.61 74 1017.4
20260504020107 72 103 0.0 2.6 0.00 0.61 0.61 74 1017.3
20260504015552 72 119 0.0 2.6 0.00 0.61 0.61 74 1017.3
20260504015052 72 126 0.0 2.6 0.00 0.61 0.61 73 1017.1
20260504014553 72 0 0.0 2.6 0.00 0.61 0.61 72 1017.3
20260504014049 72 68 0.0 2.6 0.00 0.61 0.61 72 1017.1
20260504013550 72 51 0.0 1.7 0.00 0.61 0.61 71 1017.0
20260504013053 72 0 0.0 1.7 0.00 0.61 0.61 71 1016.9
20260504012550 72 0 0.0 2.6 0.00 0.61 0.61 70 1016.8
20260504012051 72 0 0.0 3.5 0.00 0.61 0.61 70 1016.8
20260504011552 72 0 0.9 3.5 0.00 0.61 0.61 70 1016.7
20260504011050 72 0 0.0 1.7 0.00 0.61 0.61 70 1016.6
20260504010550 72 0 0.0 1.7 0.00 0.61 0.61 70 1016.6
20260504010056 72 0 0.0 1.7 0.00 0.61 0.61 69 1016.4
20260504005550 72 36 0.0 1.7 0.00 0.61 0.61 69 1016.3
20260504005052 73 0 0.0 2.6 0.00 0.61 0.61 69 1016.3
20260504004555 73 37 0.0 2.6 0.00 0.61 0.61 69 1016.2
20260504004051 73 0 0.0 2.6 0.00 0.61 0.61 68 1016.3
20260504003550 73 0 0.0 2.6 0.00 0.61 0.61 68 1016.2
20260504003053 73 52 0.0 2.6 0.00 0.61 0.61 68 1016.2
20260504002550 74 51 0.0 2.6 0.00 0.61 0.61 67 1016.0
20260504002051 74 52 0.0 2.6 0.00 0.61 0.61 66 1016.0
20260504001555 74 0 0.0 0.9 0.00 0.61 0.61 65 1015.9
20260504001051 74 0 0.0 0.9 0.00 0.61 0.61 64 1015.9
20260504000550 75 0 0.0 0.9 0.00 0.61 0.61 65 1015.6
20260504000054 75 0 0.0 0.9 0.00 0.61 0.61 63 1015.6
20260503235550 75 0 0.0 0.9 0.00 0.61 0.61 63 1015.6
20260503235053 75 0 0.0 1.7 0.00 0.61 0.61 64 1015.7
20260503234624 76 0 0.0 1.7 0.00 0.61 0.61 63 1015.6
20260503234053 76 0 0.0 1.7 0.00 0.61 0.61 62 1015.7
20260503233552 76 0 0.0 2.6 0.00 0.61 0.61 61 1015.6
20260503233112 77 0 0.0 2.6 0.00 0.61 0.61 61 1015.6
20260503232550 77 77 0.0 1.7 0.00 0.61 0.61 61 1015.7
20260503232050 77 0 0.0 1.7 0.00 0.61 0.61 59 1015.7
20260503231552 77 0 0.0 2.6 0.00 0.61 0.61 60 1015.6
20260503231050 78 0 0.0 2.6 0.00 0.61 0.61 59 1015.5
20260503230551 78 0 0.9 2.6 0.00 0.61 0.61 59 1015.5
20260503230055 78 97 0.0 1.7 0.00 0.61 0.61 59 1015.5
20260503225550 78 0 0.0 1.7 0.00 0.63 0.61 58 1015.4
20260503225050 78 104 0.0 1.7 0.00 0.63 0.61 58 1015.4
20260503224552 78 117 0.0 4.3 0.00 0.63 0.61 59 1015.5
20260503224052 79 0 0.9 4.3 0.00 0.63 0.61 58 1015.4
20260503223551 79 51 0.0 2.6 0.00 0.63 0.61 56 1015.4
20260503223057 79 360 0.0 3.5 0.00 0.63 0.61 57 1015.5
20260503222552 79 0 0.9 3.5 0.00 0.63 0.61 57 1015.5
20260503222049 79 0 0.0 2.6 0.00 0.63 0.61 58 1015.5
20260503221600 80 0 0.0 2.6 0.00 0.63 0.61 55 1015.5
20260503221050 80 343 0.0 2.6 0.00 0.63 0.61 56 1015.4
20260503220551 80 55 0.0 2.6 0.00 0.63 0.61 56 1015.5
20260503220057 80 0 0.9 3.5 0.00 0.63 0.61 57 1015.8
20260503215550 80 78 0.0 3.5 0.00 0.66 0.61 57 1015.6